Probability
0 0 0 0 0 0 0 0 0 0 0 0 0 0 0 0 0 0 0 0 0 0 16 100 100 100 90 23 10 10 6 3 3 13 23 42 45 61 77 94 97 100 100 100 100 100 100 100 97
0 0 0 0 0 0 0 0 0 0 0 0 0 0 0 0 0 0 0 0 0 3 35 100 100 100 97 68 35 23 13 16 10 16 29 42 58 77 81 90 100 100 100 100 100 100 100 100 100
0 0 0 0 0 0 0 0 0 0 0 0 0 0 0 0 0 0 0 0 0 0 16 90 100 100 100 90 55 35 23 16 19 26 45 71 71 84 90 97 100 100 100 100 100 100 100 100 100
0 0 0 0 0 0 0 0 0 0 0 0 0 0 0 0 0 0 0 0 0 0 3 90 100 100 100 94 77 65 55 26 13 26 58 71 74 68 74 81 100 100 100 100 100 100 100 100 100
0 0 0 0 0 0 0 0 0 0 0 0 0 0 0 0 0 0 0 0 0 3 29 97 100 100 100 97 94 87 74 61 48 35 48 68 81 81 71 84 97 100 97 100 100 100 100 100 100
0 0 0 0 0 0 0 0 0 0 0 0 0 0 0 0 0 0 0 0 0 45 84 100 100 100 100 100 100 100 100 90 81 68 65 77 94 87 81 81 97 100 97 97 100 100 100 100 100
0 0 0 0 0 0 0 0 0 0 0 0 0 0 0 0 0 0 0 0 0 32 65 81 94 100 100 100 100 100 100 97 97 97 100 100 97 94 84 94 97 100 100 97 97 97 97 100 100
0 0 0 0 0 0 0 0 0 0 0 0 0 0 0 0 0 0 0 0 0 0 3 10 42 68 87 97 100 100 100 100 100 100 100 100 87 74 90 87 97 100 97 90 90 81 81 90 100
0 0 0 0 0 0 0 0 0 0 0 0 0 0 0 0 0 0 0 0 0 0 0 0 0 0 13 35 84 97 100 100 100 100 100 100 42 6 6 16 52 97 100 90 90 81 74 90 74
0 0 0 0 0 0 0 0 0 0 0 0 0 0 0 0 0 0 0 0 0 0 0 0 0 0 3 19 52 81 97 100 97 81 45 29 0 0 0 0 6 94 100 94 90 90 87 35 0
0 0 0 0 0 0 0 0 0 0 0 0 0 0 0 0 0 0 0 0 0 0 0 0 0 0 0 0 0 0 6 10 19 16 0 0 0 0 0 0 0 0 32 19 23 29 13 0 0
0 0 0 0 0 0 0 0 0 0 0 0 0 0 0 0 0 0 0 0 0 0 0 0 0 0 0 0 0 0 0 0 0 3 3 0 0 0 0 0 0 0 0 0 0 0 0 0 0
0 0 0 0 0 0 0 0 0 0 0 0 0 0 0 0 0 0 0 0 0 0 0 0 0 0 0 0 0 0 0 0 0 0 0 0 0 0 0 0 0 0 0 0 0 0 0 0 0
0 0 0 0 0 0 0 0 0 0 0 0 0 0 0 0 0 0 0 0 0 0 0 0 0 0 0 0 0 0 0 0 0 0 0 0 0 0 0 0 0 0 0 0 0 0 0 0 0
0 0 0 0 0 0 0 0 0 0 0 0 0 0 0 0 0 0 0 0 0 0 0 0 0 0 0 0 0 0 0 0 0 0 0 0 0 0 0 0 0 0 0 0 0 0 0 0 0
0 0 0 0 0 0 0 0 0 0 0 0 0 0 0 0 0 0 0 0 0 0 0 0 0 0 0 0 0 0 0 0 0 0 0 0 0 0 0 0 0 0 0 0 0 0 0 0 0
0 0 0 0 0 0 0 0 0 0 0 0 0 0 0 0 0 0 0 0 0 0 0 0 0 0 0 0 0 0 0 0 0 0 0 0 0 0 0 0 0 0 0 0 0 0 0 0 0
0 0 0 0 0 0 0 0 0 0 0 0 0 0 0 0 0 0 0 0 0 0 0 0 0 0 0 0 0 0 0 0 0 0 0 0 0 0 0 0 0 0 0 0 0 0 0 0 0
0 0 0 0 0 0 0 0 0 0 0 0 0 0 0 0 0 0 0 0 0 0 0 0 0 0 0 0 0 0 0 0 0 0 0 0 0 0 0 0 0 0 0 0 0 0 0 0 0
0 0 0 0 0 0 0 0 0 0 0 0 0 0 0 0 0 0 0 0 0 0 0 0 0 0 0 0 0 0 0 0 0 0 0 0 0 0 0 0 0 0 0 0 0 0 0 0 0
0 0 0 0 0 0 0 0 0 0 0 0 0 0 0 0 0 0 0 0 0 0 0 0 0 0 0 0 0 0 0 0 0 0 0 0 0 0 0 0 0 0 0 0 0 0 0 0 0
0 0 0 0 0 0 0 0 0 0 0 0 0 0 0 0 0 0 0 0 0 0 0 0 0 0 0 0 0 0 0 0 0 0 0 0 0 0 0 0 0 0 0 0 0 0 0 0 0
0 0 0 0 0 0 0 0 0 0 0 0 0 0 0 0 0 0 0 0 0 0 0 0 0 0 0 0 0 0 0 0 0 0 0 0 0 0 0 0 0 0 0 0 0 0 0 0 0
0 0 0 0 0 0 0 0 0 0 0 0 0 0 0 0 0 0 0 0 0 0 0 0 0 0 0 0 0 0 0 0 0 0 0 0 0 0 0 0 0 0 0 0 0 0 0 0 0
0 0 0 0 0 0 0 0 0 0 0 0 0 0 0 0 0 0 0 0 0 0 0 0 0 0 0 0 0 0 0 0 0 0 0 0 0 0 0 0 0 0 0 0 0 0 0 0 0
0 0 0 0 0 0 0 0 0 0 0 0 0 0 0 0 0 0 0 0 0 0 0 0 0 0 0 0 0 0 0 0 0 0 0 0 0 0 0 0 0 0 0 0 0 0 0 0 0
0 0 0 0 0 0 0 0 0 0 0 0 0 0 0 0 0 0 0 0 0 0 0 0 0 0 0 0 0 0 0 0 0 0 0 0 0 0 0 0 0 0 0 0 0 0 0 0 0
0 0 0 0 0 0 0 0 0 0 0 0 0 0 0 0 0 0 0 0 0 0 0 0 0 0 0 0 0 0 0 0 0 0 0 0 0 0 0 0 0 0 0 0 0 0 0 0 0
0 0 0 0 0 0 0 0 0 0 0 0 0 0 0 0 0 0 0 0 0 0 0 0 0 0 0 0 0 0 0 0 0 0 0 0 0 0 0 0 0 0 0 0 0 0 0 0 0
0 0 0 0 0 0 0 0 0 0 0 0 0 0 0 0 0 0 0 0 0 0 0 0 0 0 0 0 0 0 0 0 0 0 0 0 0 0 0 0 0 0 0 0 0 0 0 0 0
Height
5848 5848 5849 5850 5851 5850 5851 5852 5852 5853 5854 5855 5855 5856 5857 5858 5859 5862 5861 5860 5861 5861 5861 5861 5860 5859 5859 5858 5858 5857 5856 5856 5855 5854 5854 5854 5853 5853 5853 5853 5853 5853 5853 5852 5852 5852 5852 5852 5852
5846 5847 5848 5848 5848 5848 5849 5850 5850 5851 5851 5851 5851 5852 5853 5854 5854 5855 5855 5856 5856 5856 5856 5856 5855 5855 5854 5853 5853 5852 5851 5851 5850 5850 5849 5849 5849 5849 5848 5848 5848 5848 5848 5848 5848 5848 5848 5848 5848
5845 5845 5847 5847 5846 5848 5848 5848 5848 5848 5848 5848 5849 5849 5851 5852 5852 5851 5852 5852 5852 5851 5851 5851 5850 5849 5849 5848 5847 5847 5846 5846 5845 5845 5844 5844 5844 5844 5844 5843 5843 5843 5843 5843 5843 5843 5843 5843 5844
5844 5845 5846 5846 5845 5846 5846 5846 5846 5846 5846 5846 5847 5847 5847 5848 5848 5848 5848 5848 5847 5846 5846 5845 5845 5844 5843 5843 5842 5841 5841 5840 5840 5840 5839 5839 5839 5838 5838 5838 5838 5838 5838 5838 5838 5838 5838 5838 5838
5844 5844 5845 5844 5845 5846 5845 5845 5844 5844 5844 5845 5845 5845 5844 5844 5843 5844 5844 5843 5843 5842 5841 5840 5840 5839 5838 5837 5836 5836 5835 5835 5834 5834 5833 5833 5833 5833 5832 5832 5832 5832 5832 5832 5832 5832 5833 5833 5833
5844 5844 5844 5844 5844 5845 5844 5844 5843 5842 5841 5841 5841 5840 5839 5839 5839 5839 5839 5839 5838 5838 5837 5836 5835 5834 5833 5832 5830 5830 5829 5828 5828 5828 5827 5827 5826 5826 5826 5825 5825 5825 5825 5825 5826 5826 5827 5827 5827
5845 5844 5844 5844 5844 5844 5844 5842 5841 5840 5839 5838 5838 5837 5835 5836 5837 5836 5835 5833 5832 5832 5831 5831 5829 5828 5827 5825 5824 5823 5822 5822 5821 5821 5820 5820 5819 5819 5818 5818 5818 5819 5819 5819 5819 5820 5821 5821 5822
5843 5844 5843 5843 5843 5842 5841 5839 5838 5837 5835 5835 5835 5833 5833 5833 5833 5832 5830 5828 5827 5826 5825 5823 5822 5821 5820 5818 5817 5816 5815 5814 5814 5813 5813 5813 5812 5811 5811 5811 5811 5811 5811 5812 5813 5813 5814 5815 5816
5842 5843 5842 5841 5840 5839 5838 5837 5836 5834 5833 5832 5831 5830 5829 5828 5828 5827 5825 5823 5821 5820 5818 5815 5814 5814 5812 5811 5809 5808 5807 5806 5806 5806 5805 5805 5804 5804 5804 5803 5804 5804 5804 5805 5806 5807 5808 5809 5810
5841 5841 5840 5839 5837 5836 5834 5833 5833 5832 5830 5829 5828 5826 5825 5824 5823 5821 5819 5817 5814 5813 5811 5809 5807 5806 5805 5804 5802 5801 5800 5799 5798 5797 5797 5797 5796 5796 5796 5796 5796 5797 5797 5798 5799 5800 5801 5802 5803
5840 5839 5838 5837 5835 5833 5832 5831 5831 5830 5829 5828 5825 5823 5821 5819 5817 5815 5813 5811 5809 5807 5806 5804 5802 5799 5797 5796 5795 5794 5793 5791 5790 5789 5789 5788 5788 5788 5788 5789 5789 5789 5789 5790 5791 5792 5794 5795 5796
5839 5838 5837 5835 5834 5832 5830 5829 5828 5827 5827 5825 5823 5820 5817 5814 5811 5808 5806 5804 5802 5801 5799 5798 5796 5793 5790 5788 5787 5786 5785 5784 5783 5782 5781 5780 5780 5780 5780 5781 5781 5781 5782 5782 5783 5784 5785 5787 5788
5838 5837 5835 5834 5832 5829 5827 5826 5826 5824 5823 5822 5819 5817 5814 5811 5807 5803 5800 5797 5795 5793 5792 5790 5787 5785 5782 5779 5777 5776 5775 5774 5774 5773 5772 5772 5771 5771 5771 5772 5772 5772 5773 5773 5774 5775 5776 5778 5779
5836 5835 5833 5831 5829 5826 5824 5823 5822 5821 5819 5817 5814 5811 5809 5806 5802 5798 5794 5791 5788 5785 5783 5781 5779 5776 5773 5771 5769 5766 5765 5764 5763 5762 5761 5761 5761 5761 5761 5761 5762 5763 5763 5764 5765 5766 5767 5768 5769
5833 5832 5831 5829 5826 5824 5823 5821 5819 5817 5815 5812 5810 5807 5804 5801 5797 5793 5789 5785 5781 5778 5775 5772 5770 5767 5764 5761 5759 5757 5754 5753 5752 5751 5750 5749 5749 5749 5749 5749 5750 5750 5751 5752 5754 5755 5756 5757 5758
5831 5830 5829 5828 5825 5823 5822 5819 5816 5814 5811 5808 5805 5802 5799 5795 5791 5787 5783 5779 5774 5770 5766 5762 5759 5756 5753 5750 5748 5745 5743 5740 5739 5738 5737 5736 5735 5735 5735 5736 5736 5737 5738 5739 5740 5742 5743 5745 5746
5830 5829 5828 5826 5823 5820 5819 5816 5814 5811 5808 5804 5800 5796 5792 5787 5783 5779 5774 5769 5765 5760 5755 5751 5747 5743 5740 5737 5734 5731 5729 5727 5724 5723 5721 5721 5720 5720 5720 5720 5721 5722 5723 5724 5725 5727 5729 5731 5732
5830 5828 5826 5824 5820 5817 5814 5812 5809 5806 5802 5798 5793 5789 5784 5779 5774 5768 5763 5758 5753 5748 5744 5739 5734 5730 5726 5722 5719 5716 5713 5711 5708 5707 5705 5703 5703 5702 5702 5703 5704 5705 5706 5708 5709 5711 5713 5715 5717
5830 5827 5824 5822 5818 5814 5810 5807 5804 5800 5795 5790 5786 5781 5775 5770 5764 5758 5752 5747 5741 5736 5730 5725 5720 5715 5711 5707 5703 5699 5696 5694 5691 5689 5687 5685 5684 5684 5684 5685 5685 5686 5688 5689 5691 5693 5696 5698 5700
5828 5825 5822 5819 5815 5811 5806 5803 5799 5794 5788 5783 5777 5772 5766 5760 5754 5748 5741 5734 5728 5722 5715 5709 5704 5698 5693 5689 5684 5680 5677 5674 5672 5671 5669 5667 5665 5665 5665 5665 5666 5667 5668 5670 5672 5675 5678 5680 5682
5826 5823 5820 5817 5812 5807 5802 5798 5793 5787 5781 5775 5769 5762 5756 5749 5741 5734 5727 5719 5712 5705 5698 5691 5685 5679 5673 5668 5663 5659 5655 5652 5649 5648 5647 5646 5644 5644 5643 5643 5644 5646 5648 5650 5652 5655 5658 5661 5664
5824 5820 5816 5812 5808 5802 5797 5792 5786 5779 5773 5766 5759 5751 5743 5734 5726 5717 5708 5699 5691 5683 5676 5669 5663 5656 5650 5644 5639 5634 5630 5627 5625 5624 5623 5622 5620 5619 5619 5619 5620 5622 5624 5627 5629 5632 5636 5640 5644
5821 5817 5812 5807 5802 5796 5789 5783 5778 5770 5762 5754 5746 5737 5728 5719 5709 5698 5688 5679 5669 5660 5653 5646 5639 5632 5625 5619 5613 5608 5604 5601 5599 5597 5596 5596 5595 5593 5593 5593 5595 5597 5599 5602 5605 5608 5612 5616 5620
5817 5813 5808 5802 5796 5790 5782 5774 5765 5757 5749 5739 5730 5720 5710 5699 5688 5678 5667 5657 5647 5638 5630 5623 5615 5608 5600 5594 5588 5583 5578 5575 5572 5570 5568 5567 5567 5566 5565 5565 5567 5570 5573 5576 5579 5582 5586 5591 5596
5813 5809 5803 5796 5789 5781 5772 5762 5754 5743 5732 5722 5712 5701 5689 5677 5667 5656 5646 5636 5626 5617 5609 5601 5593 5586 5579 5572 5567 5562 5558 5554 5551 5548 5546 5543 5541 5540 5538 5538 5540 5544 5547 5550 5554 5557 5561 5566 5571
5807 5802 5796 5789 5781 5774 5763 5751 5740 5728 5717 5705 5693 5681 5668 5657 5646 5636 5625 5615 5606 5597 5589 5582 5574 5567 5561 5555 5550 5546 5543 5539 5535 5530 5526 5522 5518 5516 5514 5513 5515 5519 5523 5528 5532 5536 5540 5544 5548
5801 5794 5788 5780 5770 5761 5751 5739 5727 5714 5702 5690 5677 5663 5651 5640 5629 5618 5608 5597 5587 5579 5571 5564 5557 5551 5546 5541 5538 5534 5530 5525 5520 5515 5509 5503 5497 5493 5490 5489 5491 5496 5502 5508 5513 5518 5522 5526 5530
5795 5787 5778 5768 5757 5748 5739 5726 5713 5699 5687 5675 5661 5649 5637 5625 5613 5602 5592 5581 5571 5562 5555 5548 5543 5538 5534 5531 5527 5523 5518 5514 5508 5502 5496 5489 5483 5478 5474 5471 5473 5477 5483 5489 5496 5501 5506 5510 5514
5787 5779 5769 5758 5747 5735 5723 5714 5700 5686 5673 5659 5646 5633 5620 5609 5599 5589 5578 5567 5557 5549 5543 5538 5533 5529 5526 5521 5517 5513 5508 5503 5497 5491 5485 5479 5474 5468 5463 5460 5460 5463 5468 5473 5479 5484 5490 5495 5500
5779 5770 5761 5751 5739 5725 5711 5701 5684 5671 5656 5642 5630 5618 5607 5596 5586 5576 5566 5557 5548 5541 5535 5530 5526 5522 5517 5513 5508 5504 5499 5493 5487 5482 5476 5471 5465 5460 5455 5452 5451 5452 5455 5459 5464 5469 5474 5480 5486
Wind_Speed
9 9 10 12 14 16 17 17 18 17 16 17 18 20 21 23 23 22 21 21 21 21 21 21 22 22 22 22 22 22 22 23 23 22 22 21 21 21 21 21 20 20 20 19 19 19 19 19 19
7 8 10 12 13 16 17 18 18 15 15 16 18 20 20 21 22 23 22 20 21 21 22 23 24 23 23 23 23 23 24 24 24 23 23 23 23 22 22 22 22 22 22 22 21 21 21 21 21
5 7 9 10 12 13 15 15 14 13 14 15 16 18 19 19 20 22 23 22 22 23 24 25 25 24 24 24 24 24 24 25 25 24 24 24 24 24 24 23 23 23 24 23 23 23 23 23 22
1 4 7 9 10 11 12 11 10 11 12 13 14 16 18 18 18 20 23 23 22 24 25 26 25 25 25 25 25 25 26 26 26 26 26 26 25 25 25 25 25 25 25 25 24 24 24 23 23
0 1 4 5 7 9 10 8 9 10 10 11 13 16 18 19 18 18 20 22 22 23 24 26 26 26 26 27 27 27 27 27 27 28 28 28 28 28 28 27 27 27 27 27 26 25 25 24 24
1 2 4 6 7 8 7 6 9 11 12 12 14 17 19 20 19 20 21 22 24 24 25 26 28 28 28 29 29 29 29 30 30 30 30 31 31 30 30 29 29 29 29 28 28 27 27 26 26
4 5 7 9 10 8 6 7 9 13 15 16 18 20 22 22 20 21 23 25 27 27 27 27 29 30 31 31 31 31 32 32 32 32 32 32 32 32 31 31 30 29 30 30 29 29 28 28 27
7 7 8 9 10 10 10 11 13 16 19 20 21 23 25 25 23 23 26 29 30 30 31 32 32 33 33 34 34 34 34 34 34 34 33 32 32 31 31 30 29 29 29 30 29 29 28 27 27
7 8 8 9 11 12 13 15 16 18 21 23 24 25 27 28 27 27 28 30 31 31 31 33 33 32 33 33 34 35 35 35 35 34 33 31 30 29 29 28 27 28 28 28 28 27 27 26 26
6 6 6 8 10 12 14 15 17 19 21 23 25 26 27 28 28 28 29 30 31 30 30 30 31 31 31 31 32 33 33 34 35 34 33 32 31 30 29 28 27 27 27 27 27 27 26 26 26
6 6 7 7 9 12 15 17 17 18 19 21 23 26 27 28 28 28 28 28 29 30 29 29 30 32 33 32 32 32 33 34 35 35 35 34 33 32 31 30 30 30 30 30 30 29 29 29 29
8 8 9 10 12 14 17 19 19 19 19 19 21 23 25 26 28 29 30 30 30 30 31 31 32 34 35 36 36 35 35 36 36 37 37 37 36 35 34 33 33 32 33 33 33 33 32 32 32
11 12 13 15 17 19 21 21 21 21 21 22 23 24 25 27 29 31 33 34 35 35 34 34 34 36 37 38 38 38 37 37 38 38 38 38 38 38 37 36 36 36 36 36 36 36 36 36 36
14 15 16 17 18 19 21 23 23 22 22 22 22 23 25 27 28 31 33 35 36 36 36 35 35 37 38 40 40 40 40 40 40 40 40 41 41 41 41 41 40 40 40 40 40 40 40 40 40
13 14 14 14 15 17 19 20 21 20 20 20 20 21 23 25 27 29 31 34 36 38 38 38 38 39 40 41 42 43 44 44 44 44 45 45 45 45 45 45 45 45 45 45 45 45 45 45 45
12 13 13 12 13 15 17 18 19 20 20 21 22 23 25 27 29 31 33 36 39 41 43 44 44 45 46 47 47 48 49 50 50 50 50 51 51 51 51 51 51 51 51 51 51 51 50 50 50
13 13 14 15 17 18 20 21 21 21 22 24 26 28 30 32 34 36 38 40 42 44 46 48 49 50 51 51 52 53 54 55 55 56 56 57 57 57 57 57 57 57 57 57 57 57 56 56 56
13 15 16 18 19 22 23 24 26 26 27 28 30 32 34 35 38 40 42 44 45 47 49 50 51 52 53 53 54 56 57 58 58 59 60 61 61 61 62 62 62 62 61 60 61 61 60 60 60
14 16 18 19 21 23 26 27 28 30 31 32 33 35 37 39 41 43 45 47 48 49 50 51 52 53 54 55 57 58 59 60 61 62 64 64 65 65 65 64 64 64 64 63 63 63 62 62 62
16 18 20 22 24 26 29 30 31 33 34 36 38 41 44 46 47 48 49 50 51 52 54 55 57 59 61 62 63 64 65 66 66 67 68 69 70 70 70 70 69 68 68 67 67 66 65 64 64
19 21 22 24 26 29 32 33 35 37 39 42 45 49 52 54 56 56 57 58 59 59 60 61 62 64 65 66 67 69 70 71 72 72 72 73 74 74 75 75 75 74 74 73 72 71 70 68 67
22 24 26 28 30 33 36 39 40 43 46 49 52 55 58 60 62 65 67 68 68 68 67 66 66 67 69 71 72 74 74 75 75 75 75 75 76 77 78 78 79 79 78 77 77 76 75 74 72
24 26 29 31 34 37 40 44 46 48 52 55 58 60 62 65 68 71 73 74 74 74 73 72 72 74 75 77 77 77 77 76 76 76 76 76 77 78 79 80 81 81 81 81 80 80 79 79 77
27 30 33 36 39 42 45 49 53 55 58 60 63 65 67 70 73 74 75 76 77 78 78 78 78 79 79 79 78 76 73 71 69 69 70 71 72 73 76 78 79 80 80 81 81 81 81 81 80
29 33 36 41 44 46 50 53 57 61 64 66 68 70 71 73 74 74 75 77 78 80 80 81 81 80 78 74 68 62 58 56 56 57 59 61 64 67 69 71 73 73 73 74 74 75 76 77 78
34 37 41 44 47 50 53 58 63 66 68 69 71 72 72 73 73 75 77 78 80 81 81 80 77 73 67 58 51 46 45 46 48 50 53 56 59 62 65 68 69 69 67 65 62 63 66 67 68
38 42 45 48 53 56 58 62 67 69 71 71 70 70 70 72 73 75 77 79 80 79 76 71 64 55 47 41 38 38 39 40 43 45 47 48 49 50 53 56 60 61 60 57 56 56 56 56 55
42 46 49 53 56 59 62 66 69 71 70 68 67 67 68 70 72 74 74 74 71 66 59 52 44 38 35 33 34 34 36 37 40 40 40 40 39 39 38 39 44 49 51 50 50 52 51 51 51
45 48 53 56 58 61 65 68 71 69 65 63 63 64 66 68 67 66 63 59 54 49 44 39 35 32 31 31 31 32 34 36 37 37 36 35 35 34 33 33 35 39 45 49 49 50 50 49 49
48 52 55 58 61 64 67 70 70 65 62 62 62 63 62 61 58 55 51 48 45 41 37 33 31 29 29 29 30 31 33 34 35 35 34 33 32 31 30 29 31 36 40 46 49 50 51 50 49
Wind_Direction
246 237 234 229 229 236 242 244 245 245 249 254 253 248 244 245 248 250 246 247 251 255 260 265 269 272 275 277 279 279 280 281 282 282 278 269 261 257 257 258 258 258 260 262 265 269 272 275 278
246 236 234 230 231 243 246 246 246 248 249 250 249 246 242 242 244 248 250 253 257 261 263 266 269 271 272 274 275 276 277 278 278 276 272 266 260 257 257 258 259 259 260 261 263 265 268 270 273
247 238 240 240 240 247 256 259 261 256 251 247 246 249 247 246 248 253 256 260 262 262 263 264 267 268 269 269 271 272 274 274 273 271 266 263 260 258 257 257 258 259 260 261 262 263 264 266 268
238 247 240 242 246 252 259 268 269 264 257 256 254 255 256 255 253 255 259 263 264 265 266 266 266 266 267 268 269 270 271 271 269 267 264 262 260 260 259 258 258 258 259 259 260 261 261 262 263
307 294 262 260 269 271 278 275 267 272 272 274 276 272 265 263 264 263 263 264 265 266 268 269 268 268 269 269 270 270 269 268 266 265 264 264 263 262 262 261 259 258 258 257 257 257 258 258 259
264 268 275 276 278 289 292 271 267 274 274 268 264 264 267 266 269 271 270 269 268 267 267 268 270 271 271 270 270 269 268 267 265 265 265 264 264 264 263 262 260 258 257 256 255 255 256 257 257
266 270 276 286 293 299 295 280 275 276 276 274 271 269 272 276 279 281 280 276 273 273 273 272 271 272 272 271 270 269 268 268 267 266 266 265 265 264 263 261 260 258 257 257 256 256 256 256 257
282 282 283 287 288 284 274 267 266 269 273 276 278 280 283 285 285 282 280 278 278 279 279 278 276 275 274 273 271 269 268 267 266 266 265 264 263 262 260 259 257 256 256 255 255 255 255 256 256
296 291 291 288 285 281 278 274 273 275 277 281 283 285 288 290 290 288 285 284 283 282 281 280 279 277 275 274 272 270 269 267 265 264 262 260 258 257 256 255 253 253 253 254 254 254 254 254 255
319 317 309 300 293 289 284 280 278 279 282 287 289 290 290 290 289 288 286 284 283 282 281 282 282 280 277 274 270 268 267 266 265 262 259 257 255 253 252 251 251 250 251 252 252 252 252 252 253
350 343 335 322 308 300 295 295 295 295 294 294 292 292 292 292 291 288 285 282 281 281 280 279 279 280 278 275 271 268 265 264 263 261 259 257 255 253 251 250 250 249 249 250 251 251 251 251 252
337 334 329 321 312 304 301 303 303 303 301 298 295 292 291 291 290 289 287 285 282 281 279 278 277 276 276 274 272 270 267 264 262 260 259 258 257 255 253 252 251 250 250 251 252 252 252 252 252
318 320 319 316 313 309 305 304 305 305 304 302 300 297 293 290 289 288 287 286 285 283 281 279 276 274 273 272 271 270 268 265 263 261 259 258 258 257 256 255 254 253 252 252 253 254 254 254 254
318 320 321 321 319 314 311 312 314 317 315 311 307 301 297 293 290 289 288 288 288 287 285 282 278 276 275 274 273 271 269 267 264 262 261 259 258 258 257 257 257 256 255 254 254 255 255 256 256
328 329 332 334 328 321 320 324 331 332 329 322 315 309 303 297 293 290 289 289 289 288 287 285 282 279 277 276 275 273 271 269 267 265 263 262 260 259 258 258 258 258 258 257 257 256 257 258 258
357 359 2 0 350 343 342 346 347 344 336 328 321 313 306 300 294 290 287 285 285 285 284 283 282 280 278 277 275 273 272 271 270 268 266 265 263 262 260 259 259 259 259 259 259 258 258 259 259
23 18 15 10 0 352 346 345 342 336 329 321 314 308 303 299 294 291 288 285 283 282 280 279 279 277 276 274 273 272 271 270 269 268 267 266 266 265 264 262 261 260 260 260 260 260 259 259 259
21 11 5 360 350 343 339 337 334 329 323 316 310 306 301 297 294 291 289 287 285 282 280 279 278 276 275 273 272 271 270 269 269 268 267 267 267 267 266 265 263 262 261 260 260 260 260 259 259
11 1 353 348 340 334 332 331 330 325 319 314 310 306 302 299 296 293 291 289 287 285 283 282 280 278 276 275 274 272 271 270 269 269 268 268 267 267 266 265 265 264 263 262 260 260 259 259 258
359 350 344 340 336 333 330 330 327 322 319 316 312 310 307 305 303 299 295 292 290 288 286 284 282 280 280 278 277 275 273 271 270 270 269 269 269 268 267 266 265 265 264 263 262 260 259 259 258
348 344 341 339 336 332 329 327 326 322 318 316 313 311 310 308 306 303 299 295 292 290 287 285 283 282 281 279 277 276 274 273 272 271 271 270 270 270 269 268 267 266 265 263 262 261 259 259 257
344 342 340 338 336 333 328 325 322 319 316 314 312 310 308 306 304 302 299 297 295 293 290 288 285 283 281 280 279 278 277 275 274 273 272 271 270 269 269 268 267 267 266 264 263 262 260 259 257
344 341 339 335 333 331 326 323 320 318 316 314 311 309 306 304 301 299 298 296 295 293 292 290 288 286 285 284 284 283 281 280 278 276 274 272 270 268 267 266 265 264 264 263 262 261 260 258 256
341 339 335 332 330 328 325 321 318 318 316 314 312 309 306 303 301 299 297 295 294 292 292 291 290 289 289 289 289 288 286 285 282 280 278 275 272 269 266 264 262 261 260 259 258 258 257 256 254
338 335 332 331 329 326 324 320 319 318 317 315 312 309 306 303 301 298 296 294 292 292 292 292 293 293 294 293 292 291 289 287 285 283 280 278 274 271 267 264 261 259 257 256 255 254 253 253 252
335 333 331 329 327 325 323 321 320 318 317 314 312 309 305 302 300 297 295 294 293 294 294 295 295 296 296 295 293 291 291 291 291 290 288 284 278 273 267 262 259 256 254 252 251 251 250 250 249
334 332 331 329 327 326 325 322 318 319 316 314 310 306 302 299 297 295 295 295 296 297 297 297 297 297 296 294 293 294 295 297 299 299 298 296 291 284 274 264 256 251 249 248 245 246 247 248 247
334 332 332 331 329 326 324 321 320 318 316 312 307 303 299 297 296 297 298 300 301 301 301 300 300 299 297 297 298 298 300 303 304 305 305 303 301 296 286 271 257 247 242 240 239 242 244 245 244
333 333 333 330 328 325 323 321 321 318 314 309 305 302 300 300 301 304 306 308 308 307 305 303 302 301 301 302 302 304 306 307 307 307 306 305 303 300 290 277 259 248 241 235 234 234 237 240 242
334 333 332 330 328 326 323 321 322 319 314 310 308 307 307 308 311 314 316 316 315 313 310 306 305 304 305 307 308 309 310 310 308 306 304 303 304 301 294 281 263 252 243 238 236 234 234 235 236